Regional Weather Roundup
Issued by NWS

Home | Current Version | Previous Version | Text Only | Print | Product List | Glossary Off
Versions: 1 2 3 4 5 6 7 8 9 10 11 12 13 14 15 16 17 18 19 20 21 22 23 24 25 26 27 28 29 30 31 32 33 34 35 36 37 38 39 40 41 42 43 44 45 46 47 48 49 50

000
ASUS43 KLMK 240702
RWRKY
KENTUCKY REGIONAL WEATHER ROUNDUP
NATIONAL WEATHER SERVICE LOUISVILLE KY
300 AM EDT SUN JUL 24 2016

NOTE "FAIR" INDICATES FEW OR NO CLOUDS BELOW 12,000 FEET
WITH NO SIGNIFICANT WEATHER AND/OR OBSTRUCTIONS TO VISIBILITY.

KYZ001>023-026-027-061>063-070>075-240800-
WESTERN AND SOUTH CENTRAL KENTUCKY

CITY           SKY/WX    TMP DP  RH WIND       PRES   REMARKS
PADUCAH        CLEAR     78  75  90 CALM      29.95R
HENDERSON      CLEAR     75  72  88 CALM      29.95R
OWENSBORO      CLEAR     80  79  97 SE3       29.96S
HOPKINSVILLE   CLEAR     77  76  96 E3        29.97S
BOWLING GREEN  CLOUDY    79  75  87 SE3       29.99S
GLASGOW        NOT AVBL
$$

KYZ024-025-028>034-038-045-046-053-240800-
NORTH CENTRAL KENTUCKY

CITY           SKY/WX    TMP DP  RH WIND       PRES   REMARKS
LOUISVILLE/SDF CLOUDY    83  76  79 CALM      29.98R HX  91
LOUISVILLE/LOU CLOUDY    82  75  79 CALM      29.99R
FORT KNOX      CLOUDY    76  74  95 SE1       29.98S
$$

KYZ035>037-039>044-047>052-055>060-089>105-240800-
NORTHEAST KENTUCKY

CITY           SKY/WX    TMP DP  RH WIND       PRES   REMARKS
LEXINGTON      CLEAR     76  72  87 SE3       30.01S
COVINGTON      CLOUDY    77  73  87 CALM      30.01R
FRANKFORT      PTCLDY    76  72  87 NW3       30.00R
$$

KYZ054-064>069-076>088-106>120-240800-
SOUTHEAST KENTUCKY

CITY           SKY/WX    TMP DP  RH WIND       PRES   REMARKS
JACKSON        CLEAR     75  71  87 CALM      30.04F
LONDON         CLEAR     74  70  87 CALM      30.04F
SOMERSET       CLEAR     72  72 100 CALM      30.04S
MIDDLESBORO    PTCLDY    72  72 100 CALM      30.06S
MONTICELLO     SUNNY    N/A N/A N/A W5        30.04F
$$





USA.gov is the U.S. government's official web portal to all federal, state and local government web resources and services.